Location: Foligno
(42.9600°N, 12.7050°E)
Time: 08:22:50
(UTC+02:00)

ISS - Pass Details

Date: 17 July 2018
Orbit: 402 x 408 km, 51.6° (Epoch: 16 July)

Event Time Altitude Azimuth Distance (km) Brightness Sun altitude
Exits shadow 01:41:13 21° 325° (NW) 990 -1.4 -25.5°
Maximum altitude 01:41:58 22° 346° (NNW) 937 -1.3 -25.5°
Drops below altitude 10° 01:44:39 10° 40° (NE) 1,469 -0.3 -25.4°
Sets 01:47:02 0° 56° (NE) 2,332 0.6 -25.4°
